Location: Homewood
(41.1836°S, 175.9581°E)
Time: 11:12:24
(UTC+00:00)

USA 238 DEB - Pass Details

Date: 18 April 2024
Orbit: 912 x 1299 km, 63.4° (Epoch: 29 April)

Event Time Altitude Azimuth Distance (km) Brightness Sun altitude
Exits shadow 16:52:58 38° 292° (WNW) 1,836 4.4 -22.8°
Maximum altitude 16:56:03 59° 230° (SW) 1,398 4.0 -22.2°
Drops below altitude 10° 17:03:24 10° 151° (SSE) 3,073 6.5 -20.8°
Sets 17:06:05 0° 146° (SSE) 3,982 7.2 -20.3°
